Simultaneous Nadir Overpasses (SNOs) Predictions

Prediction of SNOs near equator between AQUA and NPP Satellite Orbit:

Table of predicted SNOs near equator for the next 14.0 days since TLE Epoch: 5/23/2015
Index Date (AQUA) Time (AQUA) AQUA Lat,Lon Date (NPP) Time (NPP) NPP Lat,Lon Distance(km) Time Diff (sec)
1 05/24/2015 14:04:46 -30.00, 168.11 05/24/2015 13:55:46 -30.08, 168.47 35.75 540
2 05/24/2015 14:54:16 30.00, -24.26 05/24/2015 14:46:34 30.02, -24.22 5.27 462
3 05/24/2015 15:37:27 -7.59, 148.59 05/24/2015 15:30:52 -7.59, 148.59 0.07 395
4 05/24/2015 16:22:00 -10.40, -39.95 05/24/2015 16:16:35 -10.42, -40.07 14.07 325
5 05/24/2015 17:10:08 14.89, 128.70 05/24/2015 17:05:58 14.98, 128.31 42.60 250
6 05/24/2015 17:58:22 -19.51, -62.63 05/24/2015 17:55:28 -19.62, -63.29 69.50 174
7 05/24/2015 18:46:30 24.01, 106.08 05/24/2015 18:44:51 24.18, 105.18 93.97 99
8 05/27/2015 05:31:54 29.95, 116.33 05/27/2015 05:22:00 30.10, 116.90 56.89 594
9 05/27/2015 06:21:17 -29.94, -76.01 05/27/2015 06:12:39 -29.98, -75.74 26.58 518
10 05/27/2015 07:09:59 27.06, 92.35 05/27/2015 07:02:38 27.06, 92.35 0.77 441
11 05/27/2015 07:51:42 0.68, -93.78 05/27/2015 07:45:26 0.68, -93.79 1.15 376
12 05/27/2015 08:38:10 -11.72, 76.20 05/27/2015 08:33:07 -11.75, 76.00 23.05 303
13 05/27/2015 09:26:18 16.21,-115.14 05/27/2015 09:22:30 16.31,-115.61 51.10 228
14 05/27/2015 10:14:32 -20.83, 53.53 05/27/2015 10:12:00 -20.95, 52.80 77.41 152
15 05/29/2015 21:48:25 29.99,-127.81 05/29/2015 21:38:54 30.12,-127.34 47.40 571
16 05/29/2015 22:37:48 -29.98, 39.85 05/29/2015 22:29:33 -30.01, 40.02 17.00 495
17 05/29/2015 23:24:02 18.18,-149.67 05/29/2015 23:17:00 18.18,-149.67 0.36 422
18 05/30/2015 00:06:15 7.77, 23.59 05/30/2015 00:00:19 7.76, 23.56 3.94 356
19 05/30/2015 00:54:18 -13.06,-167.63 05/30/2015 00:49:37 -13.13,-167.92 32.03 281
20 05/30/2015 01:42:26 17.56, 1.03 05/30/2015 01:39:00 17.69, 0.48 59.55 206
21 05/30/2015 02:30:40 -22.17, 169.72 05/30/2015 02:28:30 -22.33, 168.91 85.11 130
22 06/01/2015 14:04:55 29.94, -11.93 06/01/2015 13:55:47 30.04, -11.55 37.77 548
23 06/01/2015 14:54:19 -29.99, 155.71 06/01/2015 14:46:27 -29.98, 155.79 7.77 472
24 06/01/2015 15:38:22 10.28, -32.05 06/01/2015 15:31:40 10.28, -32.06 1.14 402
25 06/01/2015 16:22:12 9.82, 139.90 06/01/2015 16:16:38 9.85, 139.79 12.21 334
26 06/01/2015 17:10:26 -14.44, -51.46 06/01/2015 17:06:08 -14.51, -51.84 41.02 258
27 06/01/2015 17:58:34 18.94, 117.21 06/01/2015 17:55:31 19.06, 116.57 67.96 183
28 06/01/2015 18:46:48 -23.54, -74.09 06/01/2015 18:45:01 -23.70, -74.98 92.82 107
29 06/04/2015 05:31:56 -29.97, -63.69 06/04/2015 05:21:56 -30.24, -63.14 61.11 600
30 06/04/2015 06:21:26 29.98, 103.93 06/04/2015 06:12:41 30.02, 104.22 27.98 525
31 06/04/2015 07:10:10 -27.62, -87.81 06/04/2015 07:02:41 -27.62, -87.81 0.59 449
32 06/04/2015 07:51:55 -0.44, 86.11 06/04/2015 07:45:32 -0.44, 86.11 0.35 383
